Tracking 32932 objects as of 15-Jan-2026
HD Live streaming from Space Station
objects crossing your sky now

COSMOS 832

Track COSMOS 832 now!
10-day predictions
COSMOS 832 is classified as:


NORAD ID: 8896
Int'l Code: 1976-054H
Perigee: 1,489.1 km
Apogee: 1,527.2 km
Inclination: 74.0 °
Period: 116.0 minutes
Semi major axis: 7879 km
RCS: 0.7035 m2 (medium)
Launch date: June 15, 1976
Source: Commonwealth of Independent States (former USSR) (CIS)
Launch site: PLESETSK MISSILE AND SPACE COMPLEX (PKMTR)
Your satellite tracking list
Your tracking list is empty




NASA's NSSDC Master Catalog

Two Line Element Set (TLE):
1 08896U 76054H   26014.54275067 -.00000018  00000-0 -18182-4 0  9997
2 08896  73.9997 156.9539 0024116 159.1901 272.4210 12.41320182246830
Source of the keplerian elements: AFSPC